Location: Unspecified
(0.0000°N, 0.0000°E)
Time: 19:25:19
(UTC+02:00)

Milstar 3 - Visible Passes

Search period start: 29 April 2017 00:00
Search period end: 09 May 2017 00:00
Orbit: 1097 x 5148 km, 28.2° (Epoch: 25 April)

Date Brightness Start Highest point End Pass type
(mag) Time Alt. Az. Time Alt. Az. Time Alt. Az.
29 Apr 5.6 04:04:31 29° SE 04:04:31 29° SE 04:13:10 10° SE visible
29 Apr 5.5 06:38:06 18° SW 06:48:33 31° S 07:11:44 10° SE visible
30 Apr 6.2 03:06:49 12° SE 03:06:49 12° SE 03:07:46 10° SE visible
30 Apr 5.2 05:40:24 31° SSW 05:42:52 32° S 06:02:43 10° SE visible
30 Apr 5.1 23:03:57 10° NNW 23:04:39 12° N 23:04:39 12° N visible
01 May 5.4 04:42:42 31° SSE 04:42:42 31° SSE 04:55:19 10° SE visible
01 May 5.8 07:17:34 10° SW 07:33:26 30° S 07:58:11 10° ESE visible
01 May 4.9 22:04:09 10° N 22:05:20 10° NNE 22:06:28 10° NNE visible
02 May 5.9 03:44:58 19° SE 03:44:58 19° SE 03:49:24 10° SE visible
02 May 5.5 06:18:34 20° SW 06:26:44 28° S 06:47:31 10° SE visible
03 May 5.4 05:20:48 28° S 05:21:20 28° S 05:38:24 10° SE visible
03 May 4.7 22:41:54 10° NNW 22:44:46 17° N 22:44:46 17° N visible
04 May 5.7 04:23:03 23° SSE 04:23:03 23° SSE 04:31:16 10° SE visible
04 May 5.8 06:56:45 10° SW 07:11:22 28° S 07:34:30 10° ESE visible
04 May 4.8 21:40:40 10° NNW 21:44:16 13° NNE 21:46:58 11° NE visible
05 May 6.2 03:25:17 11° SE 03:25:17 11° SE 03:25:52 10° SE visible
05 May 5.5 05:58:52 20° SSW 06:05:05 25° S 06:23:26 10° SE visible
05 May 5.2 20:38:06 10° NNW 20:41:11 12° N 20:43:53 10° NNE visible
05 May 5.0 23:21:13 10° NW 23:22:45 16° NNW 23:22:45 16° NNW visible
06 May 5.5 05:01:05 24° S 05:01:05 24° S 05:14:16 10° SE visible
06 May 4.3 22:19:47 10° NNW 22:24:56 23° NNE 22:24:56 23° NNE visible
07 May 5.9 04:03:17 16° SSE 04:03:17 16° SSE 04:07:27 10° SE visible
07 May 5.7 06:36:52 12° SW 06:49:23 27° SSE 07:10:49 10° ESE visible
07 May 4.7 21:17:49 10° NNW 21:23:13 17° NNE 21:27:09 11° NE visible
08 May 5.6 05:39:04 20° SSW 05:43:32 23° S 05:59:29 10° SE visible
08 May 5.1 20:14:30 10° NNW 20:20:09 15° N 20:24:36 10° NE visible
08 May 4.4 22:59:30 10° NW 23:02:56 26° NNW 23:02:56 26° NNW visible
